Location: Newark
(52.4787°S, 179.0532°W)
Time: 19:04:08
(UTC+00:00)

Transit 2A Rocket - Pass Details

Date: 20 November 2019
Orbit: 594 x 909 km, 66.7° (Epoch: 15 December)

Event Time Altitude Azimuth Distance (km) Brightness Sun altitude
Rises 22:41:30 0° 300° (WNW) 3,381 8.4 55.3°
Reaches altitude 10° 22:43:59 10° 294° (WNW) 2,493 7.8 55.4°
Maximum altitude 22:49:38 49° 219° (SW) 1,144 6.2 55.8°
Drops below altitude 10° 22:55:36 10° 144° (SE) 2,624 7.7 56.1°
Sets 22:58:16 0° 139° (SE) 3,574 8.3 56.2°
